Location: The Saddle
(36.8333°N, 80.3417°W)
Time: 05:13:43
(UTC-05:00)

A-11 Canister half - Visible Passes

Search period start: 19 January 2022 00:00
Search period end: 29 January 2022 00:00
Orbit: 1516 x 1684 km, 47.2° (Epoch: 18 January)

Date Brightness Start Highest point End Pass type
(mag) Time Alt. Az. Time Alt. Az. Time Alt. Az.
19 Jan 9.0 18:22:28 10° SW 18:31:58 90° NW 18:40:07 15° ENE visible
19 Jan 9.4 20:28:43 10° W 20:37:39 48° NNW 20:38:19 47° N visible
19 Jan 11.0 22:35:14 10° WNW 22:36:31 15° WNW 22:36:31 15° WNW visible
20 Jan 9.0 17:59:32 10° SW 18:09:04 86° SE 18:18:22 10° ENE visible
20 Jan 9.4 20:05:41 10° W 20:14:40 49° NNW 20:16:46 43° NNE visible
20 Jan 10.7 22:12:17 10° WNW 22:14:58 21° NW 22:14:58 21° NW visible
21 Jan 9.4 19:42:39 10° W 19:51:41 50° NNW 19:55:11 35° NE visible
21 Jan 10.3 21:49:18 10° WNW 21:53:24 27° NW 21:53:24 27° NW visible
22 Jan 9.4 19:19:36 10° W 19:28:42 51° NNW 19:33:36 28° NE visible
22 Jan 10.0 21:26:20 10° WNW 21:31:48 34° NW 21:31:48 34° NW visible
23 Jan 9.4 18:56:33 10° W 19:05:43 52° NNW 19:12:00 21° NE visible
23 Jan 9.7 21:03:21 10° WNW 21:10:12 41° NNW 21:10:12 41° NNW visible
24 Jan 9.4 18:33:32 10° W 18:42:44 54° NNW 18:50:24 15° NE visible
24 Jan 9.5 20:40:21 10° WNW 20:48:35 45° N 20:48:35 45° N visible
24 Jan 11.1 22:45:51 10° WNW 22:46:48 14° NW 22:46:48 14° NW visible
25 Jan 9.4 18:10:29 10° W 18:19:45 56° NNW 18:28:47 10° ENE visible
25 Jan 9.4 20:17:21 10° WNW 20:26:12 45° N 20:26:59 44° NNE visible
25 Jan 10.7 22:22:56 10° WNW 22:25:11 20° NW 22:25:11 20° NW visible
26 Jan 9.4 19:54:20 10° WNW 20:03:12 44° N 20:05:23 39° NE visible
26 Jan 10.4 22:00:01 10° WNW 22:03:35 27° NW 22:03:35 27° NW visible
27 Jan 9.5 19:31:20 10° WNW 19:40:12 44° N 19:43:48 32° NE visible
27 Jan 10.0 21:37:05 10° WNW 21:42:00 36° NW 21:42:00 36° NW visible
28 Jan 9.5 19:08:18 10° WNW 19:17:11 44° N 19:22:13 25° ENE visible
28 Jan 9.6 21:14:09 10° WNW 21:20:26 46° NW 21:20:26 46° NW visible
